TimeCST,TemperatureF,Dew PointF,Humidity,Sea Level PressureIn,VisibilityMPH,Wind Direction,Wind SpeedMPH,Gust SpeedMPH,PrecipitationIn,Events,Conditions,WindDirDegrees,DateUTC
12:12 AM,35.6,33.8,93,30.02,7.0,NE,5.8,-,N/A,,Clear,40,2012-11-09 06:12:00
12:33 AM,35.6,33.8,93,30.02,7.0,NE,6.9,-,N/A,,Clear,40,2012-11-09 06:33:00
12:53 AM,35.6,33.8,93,30.02,7.0,NNE,6.9,-,N/A,,Clear,30,2012-11-09 06:53:00
1:12 AM,35.6,33.8,93,30.02,7.0,NNE,6.9,-,N/A,,Clear,30,2012-11-09 07:12:00
1:33 AM,33.8,33.8,100,30.01,7.0,NNE,6.9,-,N/A,,Clear,30,2012-11-09 07:33:00
1:53 AM,33.8,33.8,100,30.01,7.0,NNE,8.1,-,N/A,,Clear,30,2012-11-09 07:53:00
2:13 AM,33.8,33.8,100,30.02,7.0,NNE,6.9,-,N/A,,Clear,30,2012-11-09 08:13:00
2:33 AM,33.8,33.8,100,30.01,7.0,NNE,8.1,-,N/A,,Clear,30,2012-11-09 08:33:00
2:53 AM,35.6,33.8,93,30.01,7.0,NE,9.2,-,N/A,,Clear,40,2012-11-09 08:53:00
3:13 AM,35.6,33.8,93,30.01,7.0,NNE,9.2,-,N/A,,Clear,30,2012-11-09 09:13:00
3:33 AM,35.6,35.6,100,30.02,7.0,NNE,9.2,-,N/A,,Clear,20,2012-11-09 09:33:00
3:53 AM,35.6,35.6,100,30.02,7.0,NNE,9.2,-,N/A,,Clear,30,2012-11-09 09:53:00
4:13 AM,35.6,33.8,93,30.02,7.0,NNE,11.5,-,N/A,,Clear,30,2012-11-09 10:13:00
4:33 AM,35.6,35.6,100,30.02,7.0,NE,10.4,-,N/A,,Clear,40,2012-11-09 10:33:00
4:53 AM,35.6,33.8,93,30.02,7.0,NE,10.4,-,N/A,,Clear,40,2012-11-09 10:53:00
5:13 AM,35.6,35.6,100,30.02,7.0,NE,10.4,-,N/A,,Clear,40,2012-11-09 11:13:00
5:33 AM,35.6,35.6,100,30.02,7.0,NE,11.5,16.1,N/A,,Clear,40,2012-11-09 11:33:00
5:53 AM,35.6,35.6,100,30.02,7.0,NNE,10.4,17.3,N/A,,Scattered Clouds,30,2012-11-09 11:53:00
6:13 AM,35.6,35.6,100,30.02,7.0,NE,10.4,-,N/A,,Scattered Clouds,40,2012-11-09 12:13:00
6:32 AM,35.6,35.6,100,30.02,7.0,NE,11.5,-,N/A,,Scattered Clouds,40,2012-11-09 12:32:00
6:53 AM,35.6,35.6,100,30.02,7.0,NE,11.5,-,N/A,,Mostly Cloudy,50,2012-11-09 12:53:00
7:13 AM,35.6,35.6,100,30.02,7.0,ENE,10.4,-,N/A,,Scattered Clouds,60,2012-11-09 13:13:00
7:32 AM,35.6,35.6,100,30.03,5.0,ENE,8.1,-,N/A,,Scattered Clouds,60,2012-11-09 13:32:00
7:53 AM,37.4,35.6,93,30.03,7.0,ENE,9.2,-,N/A,,Clear,60,2012-11-09 13:53:00
8:12 AM,37.4,37.4,100,30.03,7.0,ENE,10.4,-,N/A,,Clear,60,2012-11-09 14:12:00
8:33 AM,39.2,39.2,100,30.03,10.0,ENE,11.5,-,N/A,,Scattered Clouds,70,2012-11-09 14:33:00
8:53 AM,39.2,39.2,100,30.03,10.0,ENE,13.8,20.7,N/A,,Scattered Clouds,70,2012-11-09 14:53:00
9:12 AM,41.0,41.0,100,30.03,10.0,ENE,13.8,20.7,N/A,,Clear,70,2012-11-09 15:12:00
9:33 AM,42.8,41.0,93,30.02,10.0,ENE,13.8,21.9,N/A,,Scattered Clouds,60,2012-11-09 15:33:00
9:53 AM,42.8,39.2,87,30.02,10.0,East,16.1,19.6,N/A,,Clear,80,2012-11-09 15:53:00
10:13 AM,44.6,39.2,81,30.02,10.0,ENE,12.7,18.4,N/A,,Scattered Clouds,70,2012-11-09 16:13:00
10:33 AM,46.4,41.0,81,30.01,10.0,ENE,16.1,-,N/A,,Clear,70,2012-11-09 16:33:00
10:52 AM,48.2,41.0,76,30.01,10.0,ENE,12.7,-,N/A,,Clear,60,2012-11-09 16:52:00
11:13 AM,48.2,41.0,76,29.99,10.0,East,16.1,20.7,N/A,,Clear,80,2012-11-09 17:13:00
11:33 AM,50.0,41.0,71,29.99,10.0,East,13.8,-,N/A,,Clear,90,2012-11-09 17:33:00
11:52 AM,51.8,41.0,67,29.98,10.0,East,13.8,18.4,N/A,,Clear,80,2012-11-09 17:52:00
12:13 PM,50.0,39.2,66,29.97,10.0,East,13.8,-,N/A,,Clear,80,2012-11-09 18:13:00
12:33 PM,48.2,39.2,71,29.97,10.0,East,15.0,-,N/A,,Clear,80,2012-11-09 18:33:00
12:52 PM,48.2,39.2,71,29.96,10.0,ENE,11.5,17.3,N/A,,Clear,70,2012-11-09 18:52:00
1:13 PM,48.2,39.2,71,29.96,10.0,East,13.8,17.3,N/A,,Clear,80,2012-11-09 19:13:00
1:33 PM,48.2,39.2,71,29.94,10.0,ENE,13.8,19.6,N/A,,Clear,70,2012-11-09 19:33:00
1:53 PM,48.2,39.2,71,29.93,10.0,ENE,12.7,-,N/A,,Clear,70,2012-11-09 19:53:00
2:13 PM,48.2,39.2,71,29.93,10.0,ENE,12.7,19.6,N/A,,Clear,70,2012-11-09 20:13:00
2:33 PM,48.2,39.2,71,29.93,10.0,ENE,13.8,18.4,N/A,,Clear,70,2012-11-09 20:33:00
2:53 PM,48.2,39.2,71,29.93,10.0,ENE,17.3,20.7,N/A,,Clear,70,2012-11-09 20:53:00
3:13 PM,48.2,39.2,71,29.93,10.0,ENE,15.0,19.6,N/A,,Clear,70,2012-11-09 21:13:00
3:33 PM,48.2,39.2,71,29.93,10.0,ENE,15.0,18.4,N/A,,Clear,70,2012-11-09 21:33:00
3:53 PM,46.4,39.2,76,29.94,10.0,ENE,10.4,17.3,N/A,,Clear,70,2012-11-09 21:53:00
4:13 PM,44.6,39.2,81,29.93,10.0,ENE,13.8,-,N/A,,Clear,70,2012-11-09 22:13:00
4:33 PM,44.6,39.2,81,29.93,10.0,ENE,11.5,18.4,N/A,,Clear,60,2012-11-09 22:33:00
4:53 PM,44.6,39.2,81,29.93,10.0,NE,15.0,19.6,N/A,,Clear,50,2012-11-09 22:53:00
5:13 PM,42.8,39.2,87,29.92,10.0,ENE,12.7,-,N/A,,Clear,60,2012-11-09 23:13:00
5:33 PM,42.8,39.2,87,29.93,10.0,ENE,12.7,-,N/A,,Clear,60,2012-11-09 23:33:00
5:53 PM,42.8,39.2,87,29.93,10.0,ENE,13.8,20.7,N/A,,Mostly Cloudy,60,2012-11-09 23:53:00
6:13 PM,42.8,37.4,81,29.92,10.0,ENE,16.1,-,N/A,,Mostly Cloudy,70,2012-11-10 00:13:00
6:33 PM,42.8,37.4,81,29.91,10.0,ENE,15.0,21.9,N/A,,Scattered Clouds,60,2012-11-10 00:33:00
6:53 PM,42.8,37.4,81,29.93,7.0,ENE,13.8,19.6,N/A,,Mostly Cloudy,70,2012-11-10 00:53:00
7:13 PM,42.8,37.4,81,29.93,10.0,ENE,13.8,21.9,N/A,,Overcast,60,2012-11-10 01:13:00
7:33 PM,42.8,37.4,81,29.95,7.0,ENE,11.5,-,N/A,,Overcast,70,2012-11-10 01:33:00
7:53 PM,42.8,37.4,81,29.95,10.0,ENE,13.8,18.4,N/A,,Overcast,70,2012-11-10 01:53:00
8:13 PM,42.8,37.4,81,29.94,10.0,East,17.3,24.2,N/A,,Overcast,80,2012-11-10 02:13:00
8:33 PM,42.8,37.4,81,29.94,10.0,East,18.4,24.2,N/A,,Overcast,80,2012-11-10 02:33:00
8:53 PM,42.8,37.4,81,29.93,10.0,East,18.4,24.2,N/A,,Overcast,80,2012-11-10 02:53:00
9:13 PM,42.8,37.4,81,29.94,10.0,East,17.3,25.3,N/A,,Overcast,90,2012-11-10 03:13:00
9:33 PM,42.8,37.4,81,29.94,10.0,East,13.8,20.7,N/A,,Overcast,80,2012-11-10 03:33:00
9:53 PM,42.8,37.4,81,29.93,10.0,East,12.7,-,N/A,,Overcast,80,2012-11-10 03:53:00
10:13 PM,42.8,37.4,81,29.92,10.0,East,15.0,19.6,N/A,,Overcast,90,2012-11-10 04:13:00
10:33 PM,42.8,37.4,81,29.91,10.0,East,15.0,20.7,N/A,,Overcast,90,2012-11-10 04:33:00
10:53 PM,42.8,37.4,81,29.90,10.0,East,12.7,20.7,N/A,,Overcast,80,2012-11-10 04:53:00
11:13 PM,42.8,37.4,81,29.90,10.0,East,15.0,-,N/A,,Overcast,90,2012-11-10 05:13:00
11:33 PM,42.8,37.4,81,29.88,10.0,East,15.0,19.6,N/A,,Overcast,90,2012-11-10 05:33:00
11:53 PM,42.8,37.4,81,29.87,10.0,East,12.7,-,N/A,,Overcast,80,2012-11-10 05:53:00